Probability
0 0 0 0 0 0 0 0 0 0 0 0 0 0 3 3 3 6 3 10 10 13 10 10 10 13 13 10 3 0 3 0 0 0 0 0 0 0 0 0 3 0 0
0 0 0 0 0 0 0 0 0 0 0 0 0 0 0 0 0 0 0 0 3 3 10 10 6 3 10 13 3 0 0 0 0 0 0 0 0 0 0 0 0 0 6
0 0 0 0 0 0 0 0 0 0 0 0 0 0 0 0 0 0 0 3 6 3 6 6 3 3 3 10 6 3 0 0 0 0 0 0 0 0 0 0 0 0 0
0 0 0 0 0 0 0 0 0 0 0 0 0 0 0 0 0 0 0 0 0 0 3 6 6 3 3 6 3 3 0 0 0 0 0 0 0 0 0 0 0 0 0
0 0 0 0 0 0 0 0 0 0 0 0 0 0 0 0 0 0 0 0 0 0 0 0 0 3 0 3 0 0 0 0 0 3 0 0 0 0 0 0 0 0 0
0 0 0 0 0 0 0 0 0 0 0 0 0 0 0 0 0 0 0 0 0 0 0 0 0 0 0 0 0 0 0 0 3 3 0 0 0 0 0 0 0 0 0
0 0 0 0 0 0 0 0 0 0 0 0 0 0 0 0 0 0 0 0 0 0 0 0 0 0 0 0 0 0 0 0 0 3 0 0 0 0 0 0 0 0 0
0 0 0 0 0 0 0 0 0 0 0 0 0 0 0 0 0 0 0 0 0 0 0 0 0 0 0 0 0 0 0 3 0 0 0 0 0 0 0 0 0 0 0
0 0 0 0 0 0 0 0 0 0 0 0 0 0 0 0 0 0 0 0 0 0 0 0 0 0 0 0 0 0 0 0 0 0 0 0 0 0 0 0 0 0 0
0 0 0 0 0 0 0 0 0 0 0 0 0 0 0 0 0 0 0 0 0 0 0 0 0 0 0 0 0 0 0 0 0 0 0 0 0 0 0 0 0 0 0
0 0 0 0 0 0 0 0 0 0 0 0 0 0 0 0 0 0 0 0 0 0 0 0 0 0 0 0 0 0 0 0 0 0 0 0 0 0 0 0 0 0 0
0 0 0 0 0 0 0 0 0 0 0 0 0 0 0 0 0 0 0 0 0 0 0 0 0 0 0 0 0 0 0 0 0 0 0 0 0 0 0 0 0 0 0
0 0 0 0 0 0 0 0 0 0 0 0 0 0 0 0 0 0 0 0 0 0 0 0 0 0 0 0 0 0 0 0 3 0 3 3 3 0 0 0 0 0 0
0 0 0 0 0 0 0 0 0 0 0 0 0 0 0 0 0 0 0 0 0 0 0 0 0 0 0 0 0 0 0 0 3 6 6 0 0 0 0 0 0 0 0
0 0 0 0 0 0 0 0 0 0 0 0 0 0 0 0 0 0 0 0 0 0 0 0 0 0 0 0 0 0 0 0 0 3 0 0 0 0 0 0 0 0 0
0 0 0 0 0 0 0 0 0 0 0 0 0 0 0 0 0 0 0 0 0 0 0 0 0 0 0 0 0 0 0 0 0 0 0 0 0 0 0 0 0 0 0
0 0 0 0 0 0 0 0 0 0 0 0 0 0 0 0 0 0 0 0 0 0 0 0 0 0 0 0 0 0 0 0 0 0 0 0 0 0 0 0 0 0 0
0 0 0 0 0 0 0 0 0 0 0 0 0 0 0 0 0 0 0 0 0 0 0 0 0 0 0 0 0 0 0 0 0 0 0 0 0 0 0 0 0 0 0
0 0 0 0 0 0 0 0 0 0 0 0 0 0 0 0 0 0 0 0 0 0 0 0 0 0 0 0 0 0 0 0 0 0 0 0 0 0 0 0 0 0 0
0 0 0 0 0 0 0 0 0 0 0 0 0 0 0 0 0 0 0 0 0 0 0 0 0 0 0 0 0 0 0 0 0 0 0 0 0 0 0 0 0 0 0
0 0 0 0 0 0 0 0 0 0 0 0 0 0 0 0 0 0 0 0 0 0 0 0 0 0 0 0 0 0 0 0 0 0 0 0 0 0 0 0 0 0 0
0 0 0 0 0 0 0 0 0 0 0 0 0 0 0 0 0 0 0 0 0 0 0 0 0 0 0 0 0 0 0 0 0 0 0 0 0 0 0 0 0 0 0
0 0 0 0 0 0 0 0 0 0 0 0 0 0 0 0 0 0 0 0 0 0 0 0 0 0 0 0 0 0 0 0 0 0 0 0 0 0 0 0 0 0 0
0 0 0 0 0 0 0 0 0 0 0 0 0 0 0 0 0 0 0 0 0 0 0 0 0 0 0 0 0 0 0 0 0 0 0 0 0 0 0 0 0 0 0
0 0 0 0 0 0 0 0 0 0 0 0 0 0 0 0 0 0 0 0 0 0 0 0 0 0 0 0 0 0 0 0 0 0 0 0 0 0 0 0 0 0 0
0 0 0 0 0 0 0 0 0 0 0 0 0 0 0 0 0 0 0 0 0 0 0 0 0 0 0 0 0 0 0 0 0 0 0 0 0 0 0 0 0 0 0
Height
5801 5796 5791 5786 5782 5777 5773 5768 5764 5760 5756 5753 5751 5749 5747 5746 5745 5745 5745 5747 5749 5752 5755 5758 5762 5766 5770 5775 5779 5784 5789 5794 5799 5803 5807 5812 5817 5822 5827 5830 5835 5839 5843
5802 5797 5792 5787 5782 5777 5772 5767 5763 5759 5755 5751 5748 5745 5742 5741 5739 5739 5739 5740 5741 5744 5746 5749 5753 5756 5760 5764 5769 5774 5779 5784 5789 5793 5798 5803 5808 5813 5817 5822 5826 5830 5834
5803 5798 5793 5788 5783 5777 5772 5767 5762 5758 5753 5749 5745 5741 5738 5736 5734 5732 5732 5732 5733 5735 5738 5741 5744 5747 5751 5755 5759 5764 5769 5774 5779 5784 5788 5793 5798 5803 5808 5812 5817 5822 5826
5805 5800 5794 5789 5783 5778 5772 5767 5762 5757 5752 5747 5743 5738 5734 5731 5728 5726 5725 5725 5726 5727 5729 5732 5735 5738 5742 5745 5750 5754 5759 5764 5769 5774 5779 5784 5789 5793 5798 5803 5808 5813 5817
5806 5800 5795 5790 5784 5779 5773 5768 5762 5757 5751 5746 5741 5736 5731 5727 5724 5721 5720 5719 5719 5720 5722 5724 5726 5729 5733 5737 5740 5745 5750 5755 5759 5764 5769 5774 5779 5784 5789 5794 5799 5804 5807
5807 5801 5796 5791 5785 5780 5774 5768 5762 5756 5750 5744 5739 5733 5728 5724 5720 5717 5715 5714 5713 5714 5715 5717 5719 5721 5725 5728 5732 5736 5741 5746 5751 5756 5760 5764 5770 5775 5780 5785 5790 5795 5799
5807 5802 5797 5791 5786 5780 5774 5768 5762 5756 5750 5744 5737 5732 5726 5721 5717 5713 5711 5709 5709 5709 5709 5710 5712 5714 5717 5720 5724 5728 5733 5737 5742 5747 5751 5756 5761 5767 5772 5777 5781 5786 5790
5807 5802 5797 5791 5786 5781 5775 5769 5762 5756 5749 5743 5736 5730 5725 5719 5715 5710 5707 5705 5704 5704 5704 5705 5706 5708 5710 5713 5716 5720 5725 5729 5734 5739 5744 5748 5752 5757 5762 5768 5772 5776 5781
5806 5801 5796 5791 5786 5780 5775 5769 5763 5756 5749 5743 5736 5730 5724 5719 5714 5709 5705 5703 5701 5700 5700 5700 5701 5702 5704 5707 5710 5714 5718 5722 5726 5730 5735 5740 5744 5749 5754 5759 5764 5768 5772
5805 5800 5796 5790 5785 5780 5774 5769 5763 5756 5750 5743 5737 5731 5725 5720 5714 5709 5705 5701 5699 5697 5697 5697 5697 5698 5699 5701 5704 5707 5711 5715 5719 5723 5728 5732 5737 5741 5746 5751 5756 5761 5765
5803 5799 5794 5789 5784 5779 5774 5768 5763 5757 5751 5745 5739 5733 5727 5721 5715 5710 5705 5701 5698 5696 5695 5694 5694 5694 5695 5697 5699 5702 5706 5709 5713 5717 5722 5726 5730 5735 5739 5743 5749 5754 5758
5801 5797 5792 5788 5783 5778 5773 5768 5762 5757 5751 5746 5740 5734 5728 5723 5717 5712 5707 5702 5698 5696 5694 5693 5693 5692 5693 5694 5696 5699 5702 5705 5709 5713 5716 5721 5725 5729 5733 5738 5742 5747 5751
5798 5794 5790 5786 5781 5777 5772 5767 5762 5757 5752 5746 5741 5735 5730 5724 5719 5713 5708 5704 5700 5697 5695 5694 5692 5692 5692 5693 5694 5696 5699 5702 5706 5709 5712 5716 5720 5724 5728 5733 5737 5741 5745
5795 5791 5787 5783 5778 5774 5770 5765 5761 5756 5751 5746 5741 5736 5731 5726 5721 5715 5711 5706 5702 5699 5697 5695 5693 5693 5692 5693 5694 5695 5698 5700 5703 5707 5710 5713 5716 5720 5724 5728 5732 5736 5740
5790 5786 5783 5779 5775 5771 5767 5763 5759 5754 5750 5745 5741 5736 5732 5727 5722 5717 5713 5708 5705 5702 5699 5697 5696 5695 5694 5694 5695 5696 5698 5700 5702 5705 5708 5711 5714 5717 5721 5724 5728 5732 5735
5784 5781 5777 5774 5771 5767 5763 5760 5756 5752 5748 5744 5740 5736 5732 5727 5723 5719 5715 5711 5707 5704 5702 5700 5698 5697 5696 5696 5696 5697 5698 5700 5702 5704 5706 5709 5712 5715 5718 5721 5725 5728 5732
5778 5774 5771 5768 5765 5762 5759 5755 5752 5749 5745 5741 5738 5734 5731 5727 5723 5720 5716 5712 5709 5706 5704 5702 5700 5699 5698 5698 5698 5698 5699 5700 5702 5703 5705 5708 5710 5713 5716 5719 5722 5725 5728
5770 5767 5764 5761 5758 5755 5753 5750 5747 5744 5741 5738 5735 5732 5729 5725 5722 5719 5716 5713 5710 5707 5705 5703 5702 5700 5700 5699 5699 5699 5700 5701 5702 5703 5705 5707 5709 5711 5714 5716 5719 5722 5725
5761 5758 5756 5753 5751 5748 5745 5743 5741 5738 5736 5733 5731 5728 5725 5723 5720 5717 5715 5712 5710 5708 5706 5704 5702 5701 5700 5699 5699 5699 5700 5700 5701 5702 5704 5705 5707 5709 5712 5714 5717 5719 5722
5751 5749 5746 5744 5742 5739 5737 5735 5733 5731 5729 5727 5725 5723 5721 5719 5717 5714 5712 5710 5708 5706 5704 5703 5701 5700 5699 5699 5699 5698 5699 5699 5700 5701 5702 5704 5706 5708 5710 5712 5714 5716 5719
5741 5739 5736 5734 5732 5730 5728 5726 5724 5722 5720 5719 5717 5716 5714 5713 5711 5710 5708 5706 5704 5703 5702 5700 5699 5698 5698 5697 5697 5697 5697 5697 5698 5699 5700 5702 5703 5705 5707 5709 5711 5713 5715
5731 5728 5726 5723 5721 5719 5717 5715 5714 5712 5710 5709 5708 5707 5706 5705 5704 5703 5702 5701 5700 5698 5697 5696 5696 5695 5694 5694 5694 5694 5694 5695 5695 5696 5697 5699 5700 5702 5704 5706 5708 5710 5712
5719 5717 5714 5712 5710 5707 5705 5703 5702 5700 5699 5698 5697 5696 5695 5695 5695 5694 5693 5693 5693 5692 5691 5691 5690 5690 5690 5689 5690 5690 5690 5691 5692 5693 5694 5695 5696 5698 5700 5702 5703 5705 5707
5707 5704 5702 5699 5697 5694 5692 5690 5688 5687 5685 5684 5683 5683 5683 5683 5683 5683 5683 5683 5683 5683 5683 5683 5683 5683 5683 5683 5683 5684 5685 5686 5687 5688 5689 5690 5692 5693 5695 5697 5699 5701 5703
5694 5691 5688 5685 5683 5680 5678 5675 5673 5672 5670 5669 5668 5668 5667 5668 5668 5669 5669 5670 5671 5672 5672 5673 5673 5674 5674 5675 5676 5677 5678 5679 5680 5682 5683 5685 5686 5688 5689 5691 5693 5695 5697
5681 5677 5674 5671 5668 5665 5662 5660 5657 5655 5653 5652 5651 5650 5650 5650 5651 5652 5653 5654 5656 5657 5659 5660 5662 5662 5663 5665 5666 5668 5669 5670 5672 5674 5675 5677 5679 5681 5683 5684 5686 5688 5691
Wind_Speed
24 24 23 23 22 21 20 19 18 17 15 14 13 13 14 16 19 22 26 29 32 35 38 40 42 44 46 48 48 48 49 48 45 44 43 44 44 43 42 42 40 40 39
24 24 24 24 23 22 22 20 20 18 17 15 14 14 14 15 17 20 22 26 29 32 35 37 39 42 44 46 48 49 49 49 47 46 44 44 43 42 42 42 41 39 39
24 25 25 25 24 24 23 22 21 21 19 18 16 16 15 16 17 18 20 23 26 30 32 35 37 39 42 44 46 47 47 47 47 47 46 45 43 43 42 41 41 41 39
24 25 25 25 25 25 24 24 23 22 21 20 19 18 17 16 15 16 18 20 23 27 29 32 35 37 39 41 43 46 46 45 44 44 46 47 45 45 44 42 41 41 40
24 24 25 25 25 26 25 25 24 24 23 22 21 20 18 16 15 14 15 17 20 23 26 29 31 34 36 38 40 42 45 45 44 43 44 46 46 45 45 43 41 41 40
24 25 25 25 25 26 26 26 25 25 25 24 23 21 19 17 15 13 13 14 16 19 22 25 28 31 33 35 36 38 40 42 42 42 42 42 44 45 43 43 42 42 41
24 24 25 25 26 26 27 27 27 26 26 26 24 23 21 18 16 14 12 12 13 15 18 21 23 27 30 32 34 36 37 37 38 39 40 40 41 42 42 42 41 41 40
23 24 25 25 26 26 27 28 28 28 27 27 25 24 22 20 18 15 12 10 11 13 15 17 20 23 27 30 31 33 35 34 34 36 36 36 38 39 41 40 39 39 39
23 24 25 25 25 26 27 28 29 29 28 28 27 25 23 21 20 17 14 11 10 10 12 14 17 20 23 25 28 30 32 33 32 33 33 33 34 36 37 39 38 38 38
23 24 24 25 25 26 27 27 28 29 29 28 27 26 24 22 20 18 15 12 9 8 9 11 13 16 19 21 23 26 29 30 30 31 32 32 33 35 36 37 37 37 37
23 23 24 25 25 26 26 27 27 28 28 28 27 27 25 24 22 20 16 13 10 7 5 7 10 12 15 18 20 22 24 27 29 29 29 31 32 35 36 36 35 35 34
23 24 24 25 25 25 26 26 26 26 27 27 27 27 26 25 23 21 18 15 11 7 4 4 6 8 11 14 17 19 20 22 24 26 27 29 30 30 31 32 32 32 31
24 24 24 25 25 25 25 25 26 26 25 26 26 26 25 25 23 22 19 16 13 9 6 3 3 5 7 9 12 15 17 20 22 22 23 24 25 26 27 28 29 29 29
25 25 25 25 25 25 25 25 25 25 25 24 24 24 24 24 23 22 20 16 13 10 7 5 3 1 4 7 9 12 15 16 19 21 21 22 24 24 24 25 26 26 27
26 26 25 25 25 25 24 24 24 24 24 24 23 23 22 22 22 21 19 17 13 11 8 5 3 1 3 5 8 10 13 15 17 19 20 20 21 22 22 22 24 25 25
27 27 26 26 25 25 24 24 24 24 23 23 22 22 21 20 20 19 18 16 13 11 8 6 3 1 2 4 6 9 11 13 15 17 18 19 20 22 22 22 22 23 23
28 28 28 27 27 26 25 25 24 24 23 22 22 21 20 19 18 18 17 15 12 10 7 5 3 1 2 4 6 7 9 11 13 15 16 18 19 20 20 21 21 21 21
30 30 30 29 29 28 27 26 25 24 24 23 22 21 20 19 17 16 15 14 12 9 7 5 4 3 3 4 6 7 9 11 13 14 15 16 17 18 19 19 19 20 20
32 32 31 31 30 30 29 28 27 26 25 24 23 22 21 19 18 16 15 14 12 10 8 6 5 4 5 6 7 8 10 11 13 14 14 15 16 17 18 18 19 20 20
33 33 33 32 32 32 31 31 30 29 28 27 26 24 23 22 20 18 16 15 13 11 10 8 7 6 7 7 7 9 10 12 13 14 15 16 16 17 18 18 19 19 20
34 34 34 34 33 33 33 33 33 32 31 30 29 28 26 25 23 21 19 18 16 14 13 11 10 10 9 10 10 10 11 13 14 15 16 16 17 17 18 19 19 19 20
35 35 35 35 35 35 36 36 36 35 35 34 33 32 30 28 27 26 24 22 20 18 17 15 14 14 13 13 14 13 14 15 15 16 17 17 18 18 19 19 19 20 20
36 36 37 37 37 37 38 38 38 38 38 38 37 36 34 33 31 30 29 27 25 23 22 20 19 18 18 18 17 17 17 17 18 18 18 19 19 20 20 20 20 20 20
39 39 40 40 40 40 40 40 41 41 42 42 42 41 40 38 37 35 34 32 30 29 27 25 24 24 23 22 22 21 21 21 21 21 21 21 22 22 22 22 22 21 21
42 42 42 42 42 42 42 43 43 44 45 45 46 46 45 44 43 41 39 38 36 34 33 31 30 28 28 27 26 25 25 25 24 24 24 24 24 24 24 24 24 24 23
44 44 44 45 45 45 46 46 47 47 48 49 49 50 50 50 49 48 46 44 42 40 39 37 36 34 33 32 31 30 30 29 29 28 28 27 27 27 27 27 27 27 26
Wind_Direction
17 16 15 13 10 7 3 359 355 349 338 326 313 299 287 277 267 259 251 247 243 241 240 238 238 237 237 235 235 234 233 232 231 231 233 233 234 235 237 238 239 240 241
17 17 15 14 12 10 8 4 360 356 349 338 327 314 298 285 274 265 257 250 245 242 241 240 239 238 237 236 235 234 234 234 233 231 231 232 233 235 237 236 238 238 239
17 17 16 15 13 11 9 7 3 359 353 345 337 328 314 299 285 273 263 254 248 244 242 241 240 239 238 237 236 236 235 235 235 234 233 234 234 235 235 236 238 238 239
14 14 14 15 14 12 10 8 5 2 358 352 345 336 327 315 296 281 270 259 251 247 244 242 240 239 239 238 238 237 236 235 236 235 234 235 235 235 234 236 237 237 238
12 12 12 12 12 11 10 8 6 3 0 356 352 345 338 328 313 293 276 265 255 249 245 243 241 239 238 236 236 237 237 237 237 237 236 237 236 234 234 235 236 237 238
10 10 10 9 9 9 9 8 6 4 2 359 355 352 346 339 329 313 293 276 261 252 246 244 241 237 236 234 235 235 235 235 236 237 236 235 235 234 233 234 236 236 238
6 6 7 7 7 7 7 6 5 4 2 0 358 356 353 347 339 326 308 288 272 259 249 244 240 236 234 233 233 233 231 232 233 233 232 233 234 233 233 233 232 232 235
359 1 2 3 4 4 4 5 5 4 3 2 360 359 357 354 349 340 324 302 281 267 256 248 242 238 234 233 230 229 229 230 231 232 231 231 230 229 230 231 232 232 233
353 355 357 358 358 359 1 2 3 4 4 3 3 2 0 359 356 351 340 323 298 278 262 252 245 239 236 234 231 229 227 226 227 228 227 227 226 225 226 229 231 231 230
346 349 351 353 354 355 356 358 0 2 4 6 6 6 5 3 2 360 354 342 323 295 270 254 246 241 235 233 229 228 228 227 224 223 221 220 221 220 223 226 228 228 232
340 342 344 347 349 351 353 355 357 360 2 5 6 7 7 7 5 5 2 355 344 325 285 260 250 246 237 232 228 226 227 226 223 220 217 217 217 217 218 218 219 223 226
337 338 339 341 343 346 349 351 353 356 358 1 4 5 7 7 7 6 6 5 1 351 326 278 254 244 232 228 223 221 221 218 217 217 215 213 213 213 214 215 217 221 224
333 334 335 336 338 340 343 346 349 351 353 357 359 2 4 6 7 7 7 8 8 7 1 336 286 244 221 215 211 209 208 208 210 210 211 212 211 210 211 214 217 219 219
326 328 330 332 334 335 337 340 343 345 348 351 354 357 0 2 5 6 7 8 9 10 9 7 3 243 202 197 198 199 198 200 205 206 208 210 209 209 210 210 212 214 215
319 320 322 325 327 329 331 333 336 339 342 344 347 351 354 357 0 3 5 8 10 11 12 14 23 91 183 187 189 191 195 198 199 201 202 206 210 210 210 210 210 210 212
313 314 315 316 318 321 323 325 328 331 334 337 339 343 346 350 354 358 1 4 6 8 10 13 19 55 171 181 191 197 199 201 200 201 202 204 207 208 209 209 211 211 211
306 307 308 309 310 312 314 316 319 321 324 328 331 334 337 341 344 349 354 357 360 1 3 2 356 310 205 195 193 192 193 196 199 201 202 202 202 204 207 208 209 210 212
301 301 302 303 304 304 305 307 309 311 314 317 320 324 326 329 332 336 341 345 347 348 348 343 329 291 250 225 213 209 203 197 198 202 203 203 202 204 203 204 206 208 208
298 298 298 298 298 298 299 300 300 302 304 306 308 311 314 316 318 320 324 327 329 328 324 318 306 279 256 242 230 220 213 210 208 206 207 207 206 205 204 205 207 208 208
296 296 295 295 294 294 294 294 294 294 295 296 298 299 301 303 305 306 307 308 308 306 303 296 288 275 258 246 237 230 221 216 213 211 210 210 209 209 208 207 207 207 209
296 295 294 293 292 291 290 290 289 289 288 288 289 290 291 292 292 293 293 292 292 290 286 281 275 265 255 246 240 235 229 223 220 217 215 214 213 212 211 210 210 211 212
296 295 295 293 292 290 288 287 286 285 284 283 282 282 282 282 283 283 282 281 280 278 275 271 265 259 252 247 243 238 232 227 224 221 219 218 217 215 213 212 213 214 214
298 297 296 294 293 291 289 286 284 282 281 279 278 276 275 275 275 275 274 273 271 270 268 264 260 256 251 246 243 240 234 230 228 225 222 220 219 217 216 217 217 217 218
298 297 296 295 294 292 290 287 285 282 279 277 275 273 271 270 268 268 267 267 265 263 262 260 257 253 250 246 242 239 236 233 231 229 226 223 222 222 221 221 221 220 220
297 297 296 295 294 293 291 288 286 283 280 277 274 271 269 266 264 263 261 261 260 259 257 255 253 251 248 245 242 240 237 235 233 231 230 228 226 225 224 224 224 224 224
297 297 296 296 295 293 291 289 286 284 281 277 274 271 268 265 262 259 257 256 255 254 253 252 250 249 246 244 242 240 239 237 235 234 232 231 230 229 228 228 228 228 229